{"data":{"norad_id":57124,"intl_designator":"2023-090Z","name":"STARLINK-6146","alt_names":[],"object_type":"PAYLOAD","status":"ACTIVE","operator":null,"country":"US","launch_date":"2023-06-23","launch_site_code":"AFETR","launch_vehicle":null,"mission":null,"orbit_class":"UNKNOWN","rcs_meters":null,"size_class":null,"mass_kg":null,"dimensions":null,"purposes":["comms"],"wikipedia_slug":null,"has_3d_model":false,"image_url":null,"decayed_at":null,"tle_current":{"epoch":"2026-09-20T08:24:36.164448Z","epoch_age_seconds":133838,"freshness":"FRESH","line1":"1 57124U 23090Z   26263.35041857 -.00000573  00000+0 -11293-4 0  9991","line2":"2 57124  43.0006 262.1764 0001224 270.4363  89.6348 15.27581582180108","mean_motion":15.27581582,"eccentricity":0.0001224,"inclination_deg":43.0006,"raan_deg":262.1764,"arg_perigee_deg":270.4363,"mean_anomaly_deg":89.6348,"bstar":-1.1293e-5,"rev_number":18010,"period_min":94.266651088753,"perigee_km":482.20455036828,"apogee_km":483.88416756496,"semimajor_km":6861.1813589666,"source":"CELESTRAK","updated_at":"2026-09-21T09:00:33.562804Z"}}}